Location: Amherst
(42.5000°N, 72.5000°W)
Time: 06:18:40
(UTC-04:00)

ISS - Visible Passes

Search period start: 24 May 2018 00:00
Search period end: 03 June 2018 00:00
Orbit: 402 x 407 km, 51.6° (Epoch: 24 May)

Date Brightness Start Highest point End Pass type
(mag) Time Alt. Az. Time Alt. Az. Time Alt. Az.
24 May -1.7 01:35:16 10° NW 01:37:42 27° N 01:37:42 27° N visible
24 May -2.1 21:28:12 10° W 21:31:16 36° NNW 21:34:20 10° NE visible
24 May -0.8 23:06:11 10° NW 23:08:25 17° N 23:10:40 10° NE visible
25 May -1.3 00:43:10 10° NW 00:45:46 21° NNE 00:46:04 21° NNE visible
25 May -0.9 22:13:32 10° WNW 22:15:59 19° NNW 22:18:24 10° NE visible
25 May -1.0 23:50:59 10° NW 23:53:20 18° N 23:55:04 13° NE visible
26 May -1.0 01:27:13 10° NW 01:27:41 13° NW 01:27:41 13° NW visible
26 May -1.3 21:20:50 10° WNW 21:23:33 23° NNW 21:26:15 10° NE visible
26 May -0.8 22:58:41 10° NW 23:00:52 16° N 23:03:04 10° NE visible
27 May -1.5 00:35:06 10° NW 00:36:54 24° NNW 00:36:54 24° NNW visible
27 May -0.9 22:06:10 10° NW 22:08:22 16° N 22:10:34 10° NE visible
27 May -1.6 23:42:59 10° NW 23:45:41 23° NNE 23:46:12 22° NNE visible
28 May -1.0 21:13:31 10° NW 21:15:52 18° N 21:18:14 10° NE visible
28 May -1.2 22:50:47 10° NW 22:53:14 19° NNE 22:55:32 11° ENE visible
29 May -1.4 00:26:58 10° NW 00:28:09 20° NW 00:28:09 20° NW visible
29 May -1.0 21:58:29 10° NW 22:00:44 17° N 22:02:57 10° NE visible
29 May -2.3 23:34:49 10° NW 23:37:32 35° N 23:37:32 35° N visible
30 May -1.0 21:06:01 10° NW 21:08:11 16° N 21:10:23 10° NE visible
30 May -1.8 22:42:40 10° NW 22:45:28 25° NNE 22:46:57 18° ENE visible
31 May -1.1 00:18:56 10° WNW 00:19:34 15° WNW 00:19:34 15° WNW visible
31 May -1.4 21:50:29 10° NW 21:53:01 20° NNE 21:55:31 10° ENE visible
31 May -2.7 23:26:39 10° NW 23:29:00 43° NW 23:29:00 43° NW visible
01 Jun -1.2 20:58:11 10° NW 21:00:28 17° N 21:02:46 10° NE visible
01 Jun -2.8 22:34:26 10° NW 22:37:34 42° NNE 22:38:27 33° ENE visible
02 Jun -2.1 21:42:15 10° NW 21:45:09 28° NNE 21:47:55 11° E visible
02 Jun -2.3 23:18:35 10° WNW 23:20:33 31° W 23:20:33 31° W visible
